Content
SEND FEEDBACK

Daily
Averages
Monthly
Summary
United States of America

GIDEON, MISSOURI


Home > North America > United States > Missouri
Elevation: 268 feet     Latitude: 36 27N     Longitude: 089 54W

WEATHER
 
SELECT A DAY
Number of Records: 211,148;   Date Range: 1/1/95 - 10/30/14
 
SHARE

PRINT THIS DATA

[ ← Previous Day ]
WEATHER ALMANAC - AUGUST 27, 2014
[ Next Day → ]
[ °C ]   °F
Weather ElementAverageHighLow
Temperature81.1 °F93 °F (4:53 pm)71.1 °F (11:53 pm)
Dewpoint69.8 °F72 °F (1:53 pm)66.9 °F (4:22 pm)
Humidity70.7 %91 % (4:40 am)45 % (2:53 pm)
Barometer30.03 in30.08 in (6:53 am)29.98 in (12:53 am)
Wind Speed1.5 mph6.9 mph (10:36 am)
Weather ElementAverage
Visibility7.6 mi
Wind DirectionNNE (31.4 °)

Weather ElementTotal
Precipitation---
Cooling Degree Days17.1 (Base 65)
Growing Degree Days32.1 (Base 50)
Averaged from 22 records on August 27, 2014
WEATHER CONDITIONS BREAKOUT
WIND DIRECTION BREAKOUT
WEATHER BY HOUR - AUGUST 27, 2014
[ °C ]   °F
Local TimeTemperatureDewpointHumidityBarometerVisibilityWind DirectionWind SpeedGust SpeedPrecipitationEventsConditions
12:53 AM73.9 °F70.0 °F87 %30.05 in7.0 miCalmClear
1:53 AM73.0 °F69.1 °F87 %30.04 in8.0 miCalmClear
2:53 AM73.0 °F69.1 °F87 %30.04 in6.0 miCalmClear
3:53 AM72.0 °F69.1 °F91 %30.04 in5.0 miCalmClear
4:53 AM71.1 °F66.9 °F87 %30.04 in6.0 miCalmClear
5:53 AM71.1 °F66.9 °F87 %30.05 in4.0 miCalmClear
6:53 AM71.1 °F68.0 °F90 %30.06 in4.0 miCalmClear
7:53 AM77.0 °F70.0 °F79 %30.06 in6.0 miCalmHaze
8:53 AM80.1 °F71.1 °F74 %30.07 in9.0 miCalmClear
10:53 AM88.0 °F72.0 °F59 %30.08 in10.0 miCalmClear
11:53 AM90.0 °F70.0 °F52 %30.06 in10.0 miNE (40°)4.6 mphClear
12:53 PM91.9 °F70.0 °F48 %30.05 in10.0 miVariable3.5 mphClear
2:53 PM93.0 °F69.1 °F45 %30.02 in10.0 miSSE (150°)4.6 mphClear
3:53 PM91.9 °F68.0 °F45 %30.01 in10.0 miVariable3.5 mphClear
4:53 PM91.9 °F70.0 °F48 %29.99 in10.0 miSE (140°)5.8 mphClear
5:53 PM91.0 °F69.1 °F48 %29.98 in10.0 miSouth (180°)6.9 mphClear
6:53 PM88.0 °F69.1 °F53 %29.98 in9.0 miSouth (180°)4.6 mphClear
7:53 PM82.9 °F71.1 °F67 %30.00 in10.0 miCalmClear
8:53 PM80.1 °F71.1 °F74 %30.01 in7.0 miCalmClear
9:53 PM78.1 °F72.0 °F81 %30.02 in6.0 miCalmHaze
10:53 PM78.1 °F72.0 °F81 %30.02 in6.0 miCalmHaze
11:53 PM75.9 °F71.1 °F85 %30.01 in5.0 miCalmHaze
Hourly data recorded from KPOF, located miles away from Gideon, Missouri







STORIES FROM OUR PARTNERS